Main page
METAR-TAF:

METAR-TAF

Airports :

Avenger Field

Sweetwater, Texas, United States

latitude: 32-28-02N, longitude: 100-27-59W, elevation: 2378 ft

Current weather observation

The report was made 1 hour and 36 minutes ago, at 23:35 UTC
Wind 9 mph from the South/Southwest
Temperature 99°F
Humidity 24%
Pressure 30.03 in. Hg
Visibility: 10 miles

METAR: KSWW 222335Z AUTO 21008KT 10SM 37/13 A3003 RMK AO2 T03660125

Time: 20:11 (01:11 UTC)


TAF: missing

Weather observations and forecasts of more than 4000 airports (METAR and TAF reports).

The available stations are represented by yellow and red dots on the map.

Hover mouse over dot to see the name of the station.

Then click to see weather observations and forecasts.

To change the map : click on the green buttons with a black cross to zoom in, on the green button with a dash to zoom out, or on the green arrows for adjacent maps.


METAR-TAF: